星链-30973 (STARLINK-30973 )

导读

STARLINK-30973是美国SpaceX公司于2024年1月3日发射的星链(Starlink)系列卫星,属于星链全球卫星互联网星座的组成部分。 该卫星运行于近地轨道,依托星链星座规模化布局,为全球尤其是基础设施匮乏地区提供高速低延迟宽带互联网服务,支持视频通话、在线游戏等应用,助力实现全球无缝网络覆盖,是SpaceX推进太空互联网建设的一环。

基本信息
目录编号:
58713
目录名称:
STARLINK-30973
国际标识:
2024-002J
轨道中心:
EARTH
卫星名称:
星链-30973
卫星全名:
星链-30973 (STARLINK-30973 )
卫星状态:
在轨 (已飞行975 天)
发射日期:
2024-01-03 UTC
国别 :
美国 (US)
星等 :
--
轨道信息
数据来源 国际轨道数据
星历时间: 2026-09-04T08:41:59+0800
18小时前
查看轨道信息
半长轴: 6840.865km
偏心率: 0.0001606
轨道倾角: 53.161°
近地点辐角 56.548°
升交点赤经 120.600°
平近点角 303.568°
近地点: 461.629km
远地点: 463.827km
周期: 93.848分钟
每日圈数: 15.34392
详细信息
固有亮度:
5
最大亮度:
0.3
卫星平台:
Starlink v2.0 mini
覆盖范围:
全球
运营商:
太空探索技术公司
运营商所在国:
美国
制造商(研发单位):
太空探索技术公司
制造商所在国:
美国
使用方式:
暂无
卫星简介
星链(Starlink)计划是由太空探索技术公司(SpaceX)提出的一个巨型低轨卫星互联网星座项目,计划在2019年至2024年间在太空搭建由约1.2万颗卫星组成的“星链”网络,其中1584颗将部署在地球上空550千米处的近地轨道,并从2020年开始工作。该卫星仍在工作。
2D轨道图
3D轨道图
轨道高度分析图
轨道倾角分析图
轨道综合分析图
查看轨道综合分析图
交会数据列表
事件ID 空间交会对象 最接近时刻(TCA) 交会距离 交会风险概率(CRP) 交会风险指数(CRI) 操作
CDM_260907-042605-871305-976921
2026-09-07T
04:26:17+0000
0.458 km
远距离
2.204533E-4 高风险 0.82
CDM_260906-053405-871306-281321
2026-09-06T
05:34:17+0000
0.711 km
远距离
5.256844E-5 中风险 0.69
CDM_260907-060005-871305-976921
2026-09-07T
06:00:05+0000
0.897 km
远距离
3.390999E-5 中风险 0.66
CDM_260907-025205-871305-976921
2026-09-07T
02:52:29+0000
1.021 km
极远距离
2.178627E-5 中风险 0.62
CDM_260906-185105-871306-281321
2026-09-06T
18:51:31+0000
1.277 km
极远距离
7.337417E-6 低风险 0.52
CDM_260906-171705-871306-281321
2026-09-06T
17:17:44+0000
1.804 km
极远距离
2.485622E-6 低风险 0.43
CDM_260906-040005-871306-281321
2026-09-06T
04:00:30+0000
2.618 km
极远距离
1.107659E-6 低风险 0.36
CDM_260906-070805-871306-281321
2026-09-06T
07:08:05+0000
2.623 km
极远距离
1.104147E-6 低风险 0.36